Regional Weather Roundup
Issued by NWS

Home | Current Version | Previous Version | Text Only | Print | Product List | Glossary Off
Versions: 1 2 3 4 5 6 7 8 9 10 11 12 13 14 15 16 17 18 19 20 21 22 23 24 25 26 27 28 29 30 31 32 33 34 35 36 37 38 39 40 41 42 43 44 45 46 47 48 49 50

000
ASUS43 KFSD 140710
RWRSD

WEATHER ROUNDUP FOR SOUTH DAKOTA
NATIONAL WEATHER SERVICE SIOUX FALLS SD
200 AM CDT MON JUL 14 2014

NOTE: "FAIR" INDICATES FEW OR NO CLOUDS BELOW 12,000 FEET WITH NO
SIGNIFICANT WEATHER AND/OR OBSTRUCTIONS TO VISIBILITY.


SDZ001>005-009-010-012>017-140800-
NORTHWEST AND NORTH CENTRAL SOUTH DAKOTA

CITY           SKY/WX    TMP DP  RH WIND       PRES   REMARKS
BUFFALO          N/A     57  41  55 NE13      30.16R
FAITH            N/A     53  46  77 N8        30.16S
MOBRIDGE       CLEAR     55  48  77 N10       30.09R
$$

SDZ012>016-024>037-041>051-057-063-072>074-140800-
SOUTHWEST AND SOUTH CENTRAL SOUTH DAKOTA

CITY           SKY/WX    TMP DP  RH WIND       PRES   REMARKS
RAPID CTY ARPT CLEAR     57  52  83 N8        30.19S
PIERRE         CLEAR     54  48  80 NW7       30.09R
CUSTER         CLEAR     54  47  77 N5        30.30S
ELLSWORTH AFB  CLEAR     61  51  70 NW5       30.19R
PHILIP         PTCLDY    60  47  61 N12       30.13S
PINE RIDGE     CLEAR     60  57  89 CALM      30.18S
WINNER         PTSUNNY   63  52  67 NW5       30.10S
$$

SDZ004>011-016>023-039-040-140800-
NORTHEAST SOUTH DAKOTA

CITY           SKY/WX    TMP DP  RH WIND       PRES   REMARKS
ABERDEEN       CLEAR     52  47  83 NW9       30.03S
WATERTOWN      CLEAR     58  50  75 NW9       29.99F
SISSETON         N/A     59  51  75 N8        29.97F
$$

SDZ017-020-022-023-036>040-048>070-140800-
SOUTHEAST SOUTH DAKOTA

CITY           SKY/WX    TMP DP  RH WIND       PRES   REMARKS
SIOUX FALLS    CLEAR     57  48  72 NW9       30.00S
HURON          CLEAR     53  48  83 W8        30.02S
CHAMBERLAIN    CLEAR     57  51  81 NW6       30.08S
MITCHELL       CLEAR     57  48  72 W7        30.04S
YANKTON        PTCLDY    61  52  72 W8        30.04S
$$

ABBREVIATIONS USED IN REMARKS
   TC - TEMPERATURE IN CELSIUS
  WCI - WIND CHILL INDEX
   HX - HEAT INDEX
  VSB - VISIBILITY




USA.gov is the U.S. government's official web portal to all federal, state and local government web resources and services.